Skip Page Navigation
NASA JPL Caltech
NASA Logo - Jet Propulsion Laboratory + View the NASA Portal
+ Center for Near-Earth Object Studies
JPL Home Earth Solar System Stars & Galaxies Technology
JPL Solar System Dynamics
BODIES ORBITS EPHEMERIDES TOOLS PHYSICAL DATA DISCOVERY FAQ SITE MAP
JPL Small-Body Database Browser
Search: [ help ]  
385927 (2006 TM116)
Classification: Main-belt Asteroid          SPK-ID: 2385927
Ephemeris | Orbit Diagram | Orbital Elements | Mission Design | Physical Parameters | Discovery Circumstances | Close-Approach Data ]

[ show orbit diagram ]
Orbital Elements at Epoch 2459396.5 (2021-Jul-01.0) TDB
Reference: JPL 19 (heliocentric ecliptic J2000)
 Element Value Uncertainty (1-sigma)   Units 
e .1603949593306677 8.2614e-08  
a 3.15431515471229 6.1183e-08 au
q 2.648378903756103 2.9312e-07 au
i 10.7674092542261 7.5953e-06 deg
node 125.4810952858514 4.2415e-05 deg
peri 90.89482563135427 5.1006e-05 deg
M 40.98642609078633 2.9213e-05 deg
tp 2459163.533432722675
(2020-Nov-10.03343272)
0.00016244 TDB
period 2046.237552746529
5.60
5.9535e-05
1.63e-07
d
yr
n .1759326523534845 5.1188e-09 deg/d
Q 3.660251405668476 7.0997e-08 au
  Orbit Determination Parameters
   # obs. used (total)      159  
   data-arc span      7576 days (20.74 yr)  
   first obs. used      1999-07-20  
   last obs. used      2020-04-16  
   planetary ephem.      DE441  
   SB-pert. ephem.      SB441-N16  
   condition code      0  
   norm. resid. RMS      .53657  
   source      ORB  
   producer      Otto Matic  
   solution date      2021-Apr-14 11:07:09  

Additional Information
 Earth MOID = 1.67021 au 
 Jupiter MOID = 1.4818 au 
 T_jup = 3.160 
[ show covariance matrix ]

Ephemeris | Orbit Diagram | Orbital Elements | Mission Design | Physical Parameters | Discovery Circumstances | Close-Approach Data ]

Physical Parameter Table
Parameter Symbol Value Units Sigma Reference Notes
absolute magnitude H 16.22   n/a E2021B25  
diameter diameter 4.176 km 0.935 urn:nasa:pds:neowise_diameters_albedos::2.0[mainbelt] (http://adsabs.harvard.edu/abs/2011ApJ...741...68M)  
geometric albedo albedo 0.040   0.026 urn:nasa:pds:neowise_diameters_albedos::2.0[mainbelt] (http://adsabs.harvard.edu/abs/2011ApJ...741...68M)  

385927 (2006 TM116)          Discovered 2006-Oct-02 by Becker, A. C. at Apache Point
Reference: Last Updated: 2014-02-19

[ hide close-approach data ]
Close-Approach Data   ...sorted by Date/Time (TDB)
Date/Time (TDB) Time Uncertainty
(days_HH:MM)
Body Nominal Distance (au) Minimum Distance (au) Maximum Distance (au) V-relative (km/s) V-infinity (km/s) JD (TDB) Time Uncertainty (minutes) Semi-major axis (km) Semi-minor axis (km) range-LOV angle (deg) N-sigma BP Orbit Ref. Reference Modified
1918-Sep-21 15:46 00:09 Jupiter 1.88461946664403 1.88461332936631 1.88462560399395 3.17748219246575 3.03274034466628 2421858.157106957 9.0936532902466 688.537032019472 45.4496286064205 -72.4937290711875 946972.858231381 T 19 CATAB v2.0f-lin.ifort 2021-Apr-14 11:07:09 2021-Apr-14 11:07
1928-Dec-20 19:47 00:09 Jupiter 1.49203670841996 1.49203475480078 1.49203866214524 0.615488119985054 n/a 2425601.324510583 9.25706440482183 730.199191744306 48.5441108433848 -83.3426489782465 4565650.9391052 F 19 CATAB v2.0f-lin.ifort 2021-Apr-14 11:07:09 2021-Apr-14 11:07
1939-Mar-29 21:42 00:07 Jupiter 1.60126451293886 1.60126062211837 1.60126840379586 2.58162905126716 2.36788228862768 2429352.404334193 6.92031631938836 482.226226956089 47.3938358442808 -83.6219367434783 798303.569097857 T 19 CATAB v2.0f-lin.ifort 2021-Apr-14 11:07:09 2021-Apr-14 11:07
2013-Apr-18 07:27 < 00:01 Jupiter 1.73921075241214 1.73920958593324 1.73921191889094 2.54599801741256 2.34692884429524 2456400.810407706 0.831426131096573 149.3721028414 36.9758761909874 -83.1810566834775 1068404.51843192 T 19 CATAB v2.0f-lin.ifort 2021-Apr-14 11:07:09 2021-Apr-14 11:07
2023-Jul-10 04:51 00:01 Jupiter 1.46916572507377 1.46916470804064 1.46916674210724 0.7306547152629 n/a 2460135.702363076 1.09650939492785 119.386606941542 47.9141301730978 -81.2568655191882 4540871.73598124 F 19 CATAB v2.0f-lin.ifort 2021-Apr-14 11:07:09 2021-Apr-14 11:07
2033-Oct-24 15:02 00:02 Jupiter 1.73581979808124 1.73581825255801 1.73582134360616 3.11777992656282 2.95713002412626 2463895.126196762 1.9797162410308 158.501919193675 45.7083597776327 -75.6286378690312 1160234.30872351 T 19 CATAB v2.0f-lin.ifort 2021-Apr-14 11:07:09 2021-Apr-14 11:07
2107-Nov-15 05:34 00:09 Jupiter 1.61161153209007 1.61160743908881 1.61161562516735 1.9965974975991 1.71325766895976 2490943.732256481 8.72737461250922 792.254587693987 103.994275612034 71.3294606223906 622709.477735851 T 19 CATAB v2.0f-lin.ifort 2021-Apr-14 11:07:09 2021-Apr-14 11:07
2118-Jan-31 23:56 00:11 Jupiter 1.49831189437785 1.49830994540458 1.49831385900292 1.11545003120827 0.337035609715281 2494674.497567670 10.6614517857492 71554.0515602442 775.713956558112 -16.5103342162834 3301222.67960942 T 19 CATAB v2.0f-lin.ifort 2021-Apr-14 11:07:09 2021-Apr-14 11:07
2128-May-28 15:49 00:10 Jupiter 1.88060725029137 1.88059999499468 1.88061450566342 3.72650536594491 3.6036156047671 2498444.159086586 10.3338939243058 712.345428214524 48.9233273028294 -65.1867641997028 1436720.5117504 T 19 CATAB v2.0f-lin.ifort 2021-Apr-14 11:07:09 2021-Apr-14 11:07
2192-Jan-21 17:25 00:15 Jupiter 1.96035819034142 1.96034715259912 1.96036922834849 3.7048617632823 3.58634213703976 2521692.225869514 15.071650355229 1286.61402104068 44.8416890006215 -68.5497840683864 1159124.34083003 T 19 CATAB v2.0f-lin.ifort 2021-Apr-14 11:07:09 2021-Apr-14 11:07
Ephemeris | Orbit Diagram | Orbital Elements | Mission Design | Physical Parameters | Discovery Circumstances | Close-Approach Data ]
ABOUT SSD CREDITS/AWARDS PRIVACY/COPYRIGHT GLOSSARY LINKS
FirstGov 2021-Jul-30 10:44 UT
(server date/time)  
NASA Home Page
Site Manager:   Ryan S. Park
Webmaster  Alan B. Chamberlin